• In Italy
  • List of Countries
  • For 7 days
  • Water Temperature
  • Satellite Maps
  • Weather Map
  • Weather Widgets
  • user-avatar
    Login

    Hourly Weather Giumri

    Today, 18 August, Saturday

    Time Temperature Precipitation Wind Pressure Humidity
    00:00 +18°C° 0.7 mm 2 mps 632 mmHg 82%
    01:00 +18°C° 0.4 mm 2 mps 632 mmHg 83%
    02:00 +17°C° 0.4 mm 2 mps 632 mmHg 84%
    03:00 +17°C° 0 mm 2 mps 631 mmHg 87%
    04:00 +17°C° 0.3 mm 2 mps 631 mmHg 88%
    05:00 +17°C° 0.3 mm 2 mps 631 mmHg 89%
    06:00 +17°C° 0.3 mm 2 mps 631 mmHg 89%
    07:00 +18°C° 0.3 mm 2 mps 632 mmHg 82%
    08:00 +20°C° 0.3 mm 2 mps 632 mmHg 75%
    09:00 +23°C° 0 mm 2 mps 633 mmHg 65%
    10:00 +25°C° 0.4 mm 2 mps 633 mmHg 61%
    11:00 +26°C° 0.4 mm 2 mps 633 mmHg 56%
    12:00 +27°C° 0.4 mm 2 mps 633 mmHg 51%
    13:00 +27°C° 0.5 mm 2 mps 633 mmHg 51%
    14:00 +27°C° 0.5 mm 2 mps 632 mmHg 50%
    15:00 +27°C° 0.5 mm 2 mps 632 mmHg 49%
    16:00 +26°C° 1.3 mm 3 mps 632 mmHg 54%
    17:00 +25°C° 1.3 mm 3 mps 632 mmHg 58%
    18:00 +24°C° 1.3 mm 3 mps 631 mmHg 63%
    19:00 +22°C° 0.7 mm 3 mps 631 mmHg 69%
    20:00 +20°C° 0.7 mm 3 mps 631 mmHg 75%
    21:00 +19°C° 0.7 mm 3 mps 631 mmHg 81%
    22:00 +18°C° 1 mm 3 mps 631 mmHg 83%
    23:00 +18°C° 1 mm 3 mps 631 mmHg 85%

    Tomorrow, 19 August, Sunday

    Time Temperature Precipitation Wind Pressure Humidity
    00:00 +17°C° 1 mm 3 mps 632 mmHg 87%
    01:00 +17°C° 1.1 mm 3 mps 631 mmHg 88%
    02:00 +17°C° 1.1 mm 3 mps 631 mmHg 90%
    03:00 +16°C° 1.1 mm 3 mps 631 mmHg 91%
    04:00 +16°C° 0.7 mm 3 mps 631 mmHg 91%
    05:00 +16°C° 0.7 mm 2 mps 631 mmHg 90%
    06:00 +16°C° 0.7 mm 2 mps 631 mmHg 90%
    07:00 +17°C° 0.2 mm 2 mps 632 mmHg 83%
    08:00 +18°C° 0.2 mm 2 mps 632 mmHg 77%
    09:00 +20°C° 0.2 mm 2 mps 632 mmHg 70%
    10:00 +21°C° 0.2 mm 3 mps 632 mmHg 66%
    11:00 +22°C° 0.2 mm 3 mps 632 mmHg 63%
    12:00 +24°C° 0.2 mm 3 mps 632 mmHg 59%
    13:00 +24°C° 0.7 mm 3 mps 632 mmHg 58%
    14:00 +24°C° 0.7 mm 3 mps 632 mmHg 57%
    15:00 +25°C° 0.7 mm 3 mps 632 mmHg 56%
    16:00 +24°C° 1.3 mm 3 mps 632 mmHg 60%
    17:00 +22°C° 1.3 mm 3 mps 632 mmHg 64%
    18:00 +21°C° 1.3 mm 4 mps 632 mmHg 69%
    19:00 +20°C° 0.5 mm 3 mps 632 mmHg 73%
    20:00 +18°C° 0.5 mm 3 mps 632 mmHg 78%
    21:00 +17°C° 0.5 mm 3 mps 632 mmHg 82%
    22:00 +17°C° 1.1 mm 3 mps 632 mmHg 84%
    23:00 +17°C° 1.1 mm 3 mps 633 mmHg 86%

    Day after tomorrow, 20 August, Monday

    Time Temperature Precipitation Wind Pressure Humidity
    00:00 +17°C° 1.1 mm 3 mps 633 mmHg 88%
    01:00 +16°C° 0.6 mm 3 mps 633 mmHg 89%
    02:00 +16°C° 0.6 mm 3 mps 633 mmHg 90%
    03:00 +16°C° 0.6 mm 2 mps 633 mmHg 91%
    04:00 +15°C° 0.4 mm 2 mps 633 mmHg 91%
    05:00 +15°C° 0.4 mm 2 mps 633 mmHg 91%
    06:00 +15°C° 0.4 mm 2 mps 633 mmHg 92%
    07:00 +16°C° 0.1 mm 3 mps 633 mmHg 85%
    08:00 +17°C° 0.1 mm 3 mps 634 mmHg 79%
    09:00 +18°C° 0.1 mm 3 mps 634 mmHg 73%
    10:00 +19°C° 0.1 mm 3 mps 635 mmHg 69%
    11:00 +20°C° 0.1 mm 3 mps 635 mmHg 66%
    12:00 +21°C° 0.1 mm 3 mps 635 mmHg 62%
    13:00 +22°C° 0.4 mm 4 mps 635 mmHg 62%
    14:00 +22°C° 0.4 mm 4 mps 635 mmHg 61%
    15:00 +22°C° 0.4 mm 4 mps 635 mmHg 61%
    16:00 +21°C° 0.3 mm 4 mps 634 mmHg 65%
    17:00 +20°C° 0.3 mm 4 mps 634 mmHg 69%
    18:00 +19°C° 0.3 mm 4 mps 634 mmHg 74%
    19:00 +18°C° 0.4 mm 4 mps 634 mmHg 78%
    20:00 +17°C° 0.4 mm 3 mps 634 mmHg 82%
    21:00 +16°C° 0.4 mm 3 mps 634 mmHg 86%
    22:00 +16°C° 0.2 mm 3 mps 634 mmHg 87%
    23:00 +14°C° 0.2 mm 3 mps 634 mmHg 87%

    21 August, Tuesday

    Time Temperature Precipitation Wind Pressure Humidity
    00:00 +15°C° 0.2 mm 2 mps 634 mmHg 88%
    01:00 +15°C° 0 mm 2 mps 634 mmHg 89%
    02:00 +14°C° 0 mm 2 mps 634 mmHg 89%
    03:00 +14°C° 0 mm 2 mps 634 mmHg 90%
    04:00 +14°C° 0 mm 2 mps 634 mmHg 90%
    05:00 +14°C° 0 mm 2 mps 634 mmHg 90%
    06:00 +14°C° 0 mm 2 mps 634 mmHg 90%
    07:00 +16°C° 0 mm 2 mps 635 mmHg 81%
    08:00 +18°C° 0 mm 2 mps 635 mmHg 73%
    09:00 +20°C° 0 mm 2 mps 636 mmHg 65%
    10:00 +21°C° 0 mm 2 mps 636 mmHg 59%
    11:00 +24°C° 0 mm 2 mps 636 mmHg 53%
    12:00 +26°C° 0 mm 2 mps 636 mmHg 48%
    13:00 +26°C° 0 mm 2 mps 636 mmHg 47%
    14:00 +26°C° 0 mm 2 mps 636 mmHg 46%
    15:00 +27°C° 0 mm 2 mps 636 mmHg 45%
    16:00 +26°C° 0.1 mm 2 mps 636 mmHg 51%
    17:00 +25°C° 0.1 mm 2 mps 635 mmHg 57%
    18:00 +24°C° 0.1 mm 3 mps 635 mmHg 63%
    19:00 +21°C° 0.2 mm 3 mps 635 mmHg 70%
    20:00 +19°C° 0.2 mm 3 mps 635 mmHg 78%
    21:00 +17°C° 0.2 mm 3 mps 635 mmHg 85%
    22:00 +17°C° 0 mm 2 mps 635 mmHg 85%
    23:00 +16°C° 0 mm 2 mps 635 mmHg 85%

    22 August, Wednesday

    Time Temperature Precipitation Wind Pressure Humidity
    00:00 +16°C° 0 mm 2 mps 635 mmHg 84%
    01:00 +16°C° 0 mm 2 mps 635 mmHg 84%
    02:00 +15°C° 0 mm 2 mps 635 mmHg 83%
    03:00 +15°C° 0 mm 2 mps 635 mmHg 83%
    04:00 +15°C° 0 mm 2 mps 635 mmHg 82%
    05:00 +15°C° 0 mm 2 mps 635 mmHg 82%
    06:00 +15°C° 0 mm 2 mps 635 mmHg 81%
    07:00 +17°C° 0 mm 2 mps 635 mmHg 73%
    08:00 +20°C° 0 mm 2 mps 636 mmHg 65%
    09:00 +23°C° 0 mm 1 mps 637 mmHg 56%
    10:00 +24°C° 0 mm 2 mps 637 mmHg 52%
    11:00 +26°C° 0 mm 2 mps 637 mmHg 48%
    12:00 +27°C° 0 mm 2 mps 637 mmHg 44%
    13:00 +27°C° 0.1 mm 2 mps 637 mmHg 44%
    14:00 +28°C° 0.1 mm 2 mps 636 mmHg 44%
    15:00 +28°C° 0.1 mm 2 mps 636 mmHg 45%
    16:00 +27°C° 0.2 mm 3 mps 636 mmHg 50%
    17:00 +25°C° 0.2 mm 3 mps 636 mmHg 56%
    18:00 +24°C° 0.2 mm 3 mps 636 mmHg 62%
    19:00 +22°C° 0.1 mm 3 mps 636 mmHg 67%
    20:00 +20°C° 0.1 mm 3 mps 636 mmHg 72%
    21:00 +18°C° 0.1 mm 3 mps 636 mmHg 78%
    22:00 +17°C° 0 mm 3 mps 636 mmHg 77%
    23:00 +17°C° 0 mm 2 mps 636 mmHg 77%

    23 August, Thursday

    Time Temperature Precipitation Wind Pressure Humidity
    00:00 +16°C° 0 mm 2 mps 636 mmHg 77%
    01:00 +16°C° 0 mm 2 mps 635 mmHg 77%
    02:00 +16°C° 0 mm 2 mps 635 mmHg 77%
    03:00 +15°C° 0 mm 2 mps 635 mmHg 77%
    04:00 +15°C° 0 mm 2 mps 635 mmHg 77%
    05:00 +15°C° 0 mm 2 mps 635 mmHg 77%
    06:00 +15°C° 0 mm 2 mps 635 mmHg 77%
    07:00 +17°C° 0 mm 2 mps 636 mmHg 70%
    08:00 +19°C° 0 mm 2 mps 636 mmHg 63%
    09:00 +21°C° 0 mm 2 mps 637 mmHg 56%
    10:00 +24°C° 0 mm 2 mps 637 mmHg 53%
    11:00 +25°C° 0 mm 3 mps 637 mmHg 49%
    12:00 +26°C° 0 mm 3 mps 637 mmHg 46%
    13:00 +27°C° 0 mm 3 mps 637 mmHg 46%
    14:00 +27°C° 0 mm 3 mps 636 mmHg 46%
    15:00 +27°C° 0 mm 3 mps 636 mmHg 46%
    16:00 +26°C° 0.1 mm 3 mps 636 mmHg 51%
    17:00 +25°C° 0.1 mm 4 mps 636 mmHg 57%
    18:00 +23°C° 0.1 mm 4 mps 635 mmHg 62%
    19:00 +21°C° 0.1 mm 3 mps 635 mmHg 67%
    20:00 +19°C° 0.1 mm 3 mps 635 mmHg 72%
    21:00 +18°C° 0.1 mm 3 mps 635 mmHg 77%
    22:00 +17°C° 0 mm 3 mps 635 mmHg 77%
    23:00 +17°C° 0 mm 2 mps 635 mmHg 77%
    Show more